User: anonymous   Login
Location: Columbia
(38.9520°N, 92.3340°W)
Time: 07:08:10
(UTC-06:00)
Language:

SJ-11-01 - Orbit

View from above orbital plane
View from above orbital plane
View from above satellite
View from above satellite

Ground track
Ground track

The orbit data is extracted from the following two-line orbital elements,

1 36088U 09061A   15031.23529197  .00000399  00000-0  92662-4 0  8123
2 36088 098.2592 077.8978 0012082 079.4394 280.8177 14.60125261278016
Epoch (UTC): 31 January 2015 05:38:49
Eccentricity: 0.0012082
inclination: 98.2592°
perigee height: 684 km
apogee height: 701 km
right ascension of ascending node: 77.8978°
argument of perigee: 79.4394°
revolutions per day: 14.60125261
mean anomaly at epoch: 280.8177°
orbit number at epoch: 27801

The dashed part of the orbit path shows where the satellite is in the earth's shadow,  

DLR